When you browse on this site, cookies collect data to enhance your experience and personalize the content and advertising you see.
Visit our Privacy Policy to learn more. By continuing to use the site, you agree to this use of cookies and data.
  • In Hungary
  • List of Countries
  • For 7 days
  • Water Temperature
  • Weather Map
  • News
  • Weather Widgets
  • user-avatar
    Login

    Hourly Weather Minovskoe

    Today, 26 January, Sunday

    Time Temperature Precipitation Wind Pressure Humidity
    00:00 -6°C° 0.1 mm 5 mps 738 mmHg 85%
    01:00 -6°C° 0.1 mm 5 mps 738 mmHg 85%
    02:00 -6°C° 0.1 mm 5 mps 739 mmHg 84%
    03:00 -6°C° 0 mm 5 mps 740 mmHg 83%
    04:00 -6°C° 0 mm 5 mps 740 mmHg 82%
    05:00 -6°C° 0 mm 5 mps 741 mmHg 80%
    06:00 -5°C° 0 mm 4 mps 741 mmHg 83%
    07:00 -7°C° 0 mm 4 mps 742 mmHg 85%
    08:00 -6°C° 0 mm 3 mps 742 mmHg 88%
    09:00 -6°C° 0 mm 3 mps 742 mmHg 87%
    10:00 -5°C° 0 mm 3 mps 743 mmHg 86%
    11:00 -4°C° 0 mm 3 mps 743 mmHg 84%
    12:00 -4°C° 0 mm 3 mps 742 mmHg 86%
    13:00 -4°C° 0 mm 4 mps 742 mmHg 87%
    14:00 -4°C° 0 mm 4 mps 741 mmHg 88%
    15:00 -3°C° 0.4 mm 4 mps 740 mmHg 91%
    16:00 -4°C° 0.4 mm 5 mps 739 mmHg 93%
    17:00 -4°C° 0.4 mm 6 mps 738 mmHg 95%
    18:00 -3°C° 0.6 mm 6 mps 738 mmHg 95%
    19:00 -2°C° 0.6 mm 6 mps 737 mmHg 95%
    20:00 +1°C° 0.6 mm 6 mps 737 mmHg 96%
    21:00 +1°C° 0.3 mm 6 mps 737 mmHg 96%
    22:00 -1°C° 0.3 mm 6 mps 738 mmHg 95%
    23:00 0°C° 0.3 mm 5 mps 738 mmHg 95%

    Tomorrow, 27 January, Monday

    Time Temperature Precipitation Wind Pressure Humidity
    00:00 -1°C° 0.1 mm 5 mps 739 mmHg 94%
    01:00 -2°C° 0.1 mm 4 mps 740 mmHg 92%
    02:00 -2°C° 0.1 mm 3 mps 741 mmHg 90%
    03:00 -4°C° 0 mm 3 mps 742 mmHg 91%
    04:00 -5°C° 0 mm 3 mps 743 mmHg 92%
    05:00 -5°C° 0 mm 2 mps 744 mmHg 94%
    06:00 -6°C° 0 mm 2 mps 744 mmHg 93%
    07:00 -6°C° 0 mm 2 mps 745 mmHg 93%
    08:00 -7°C° 0 mm 2 mps 746 mmHg 92%
    09:00 -6°C° 0 mm 1 mps 746 mmHg 88%
    10:00 -4°C° 0 mm 1 mps 747 mmHg 84%
    11:00 -4°C° 0 mm 1 mps 747 mmHg 80%
    12:00 -6°C° 0 mm 2 mps 747 mmHg 79%
    13:00 -6°C° 0 mm 2 mps 747 mmHg 78%
    14:00 -6°C° 0 mm 2 mps 747 mmHg 77%
    15:00 -6°C° 0 mm 2 mps 747 mmHg 78%
    16:00 -7°C° 0 mm 3 mps 747 mmHg 79%
    17:00 -7°C° 0 mm 3 mps 747 mmHg 80%
    18:00 -7°C° 0.2 mm 3 mps 747 mmHg 83%
    19:00 -8°C° 0.2 mm 4 mps 747 mmHg 86%
    20:00 -8°C° 0.2 mm 4 mps 746 mmHg 89%
    21:00 -8°C° 0.4 mm 4 mps 746 mmHg 90%
    22:00 -8°C° 0.4 mm 4 mps 746 mmHg 92%
    23:00 -8°C° 0.4 mm 5 mps 746 mmHg 93%

    Day after tomorrow, 28 January, Tuesday

    Time Temperature Precipitation Wind Pressure Humidity
    00:00 -8°C° 0.4 mm 4 mps 745 mmHg 93%
    01:00 -8°C° 0.4 mm 4 mps 745 mmHg 94%
    02:00 -8°C° 0.4 mm 4 mps 744 mmHg 94%
    03:00 -7°C° 0.3 mm 3 mps 744 mmHg 94%
    04:00 -6°C° 0.3 mm 3 mps 744 mmHg 95%
    05:00 -6°C° 0.3 mm 3 mps 743 mmHg 95%
    06:00 -6°C° 0.3 mm 3 mps 743 mmHg 95%
    07:00 -5°C° 0.3 mm 2 mps 743 mmHg 95%
    08:00 -4°C° 0.3 mm 2 mps 743 mmHg 96%
    09:00 -4°C° 0.2 mm 2 mps 743 mmHg 96%
    10:00 -3°C° 0.2 mm 2 mps 743 mmHg 96%
    11:00 -1°C° 0.2 mm 1 mps 743 mmHg 96%
    12:00 0°C° 0.2 mm 1 mps 743 mmHg 97%
    13:00 0°C° 0.2 mm 1 mps 743 mmHg 97%
    14:00 +1°C° 0.2 mm 1 mps 742 mmHg 98%
    15:00 +1°C° 0.1 mm 1 mps 742 mmHg 98%
    16:00 +1°C° 0.1 mm 1 mps 742 mmHg 98%
    17:00 +1°C° 0.1 mm 1 mps 742 mmHg 98%
    18:00 +1°C° 0 mm 1 mps 743 mmHg 98%
    19:00 +1°C° 0 mm 1 mps 743 mmHg 98%
    20:00 +1°C° 0 mm 1 mps 743 mmHg 98%
    21:00 +1°C° 0 mm 1 mps 743 mmHg 98%
    22:00 +1°C° 0 mm 1 mps 743 mmHg 98%
    23:00 +1°C° 0 mm 1 mps 743 mmHg 98%

    29 January, Wednesday

    Time Temperature Precipitation Wind Pressure Humidity
    00:00 -2°C° 0 mm 2 mps 743 mmHg 97%
    01:00 -2°C° 0 mm 2 mps 743 mmHg 97%
    02:00 -2°C° 0 mm 2 mps 743 mmHg 96%
    03:00 -3°C° 0 mm 2 mps 743 mmHg 96%
    04:00 -3°C° 0 mm 2 mps 742 mmHg 96%
    05:00 -3°C° 0 mm 2 mps 742 mmHg 96%
    06:00 -3°C° 0 mm 2 mps 742 mmHg 96%
    07:00 -4°C° 0 mm 2 mps 742 mmHg 96%
    08:00 -4°C° 0 mm 2 mps 742 mmHg 96%
    09:00 -3°C° 0 mm 2 mps 742 mmHg 95%
    10:00 -2°C° 0 mm 3 mps 743 mmHg 94%
    11:00 -1°C° 0 mm 3 mps 743 mmHg 93%
    12:00 -1°C° 0 mm 3 mps 742 mmHg 93%
    13:00 -1°C° 0 mm 3 mps 742 mmHg 93%
    14:00 -1°C° 0 mm 3 mps 742 mmHg 93%
    15:00 -1°C° 0 mm 3 mps 742 mmHg 94%
    16:00 -1°C° 0 mm 3 mps 742 mmHg 95%
    17:00 -1°C° 0 mm 3 mps 742 mmHg 95%
    18:00 -1°C° 0 mm 3 mps 742 mmHg 95%
    19:00 -1°C° 0 mm 3 mps 742 mmHg 96%
    20:00 -1°C° 0 mm 3 mps 742 mmHg 96%
    21:00 -1°C° 0 mm 3 mps 741 mmHg 95%
    22:00 -2°C° 0 mm 4 mps 741 mmHg 95%
    23:00 -2°C° 0 mm 4 mps 741 mmHg 94%

    30 January, Thursday

    Time Temperature Precipitation Wind Pressure Humidity
    00:00 -2°C° 0 mm 4 mps 740 mmHg 94%
    01:00 -2°C° 0 mm 4 mps 740 mmHg 95%
    02:00 -2°C° 0 mm 4 mps 740 mmHg 95%
    03:00 -2°C° 0.1 mm 5 mps 739 mmHg 95%
    04:00 -2°C° 0.1 mm 5 mps 739 mmHg 96%
    05:00 -1°C° 0.1 mm 5 mps 739 mmHg 97%
    06:00 -1°C° 0.2 mm 5 mps 738 mmHg 97%
    07:00 -1°C° 0.2 mm 5 mps 738 mmHg 97%
    08:00 -1°C° 0.2 mm 5 mps 738 mmHg 97%
    09:00 -1°C° 0.1 mm 5 mps 737 mmHg 96%
    10:00 -2°C° 0.1 mm 5 mps 737 mmHg 96%
    11:00 -2°C° 0.1 mm 5 mps 737 mmHg 95%
    12:00 -2°C° 0.3 mm 5 mps 737 mmHg 96%
    13:00 -2°C° 0.3 mm 5 mps 736 mmHg 96%
    14:00 -2°C° 0.3 mm 5 mps 736 mmHg 96%
    15:00 -2°C° 0.6 mm 5 mps 736 mmHg 96%
    16:00 -2°C° 0.6 mm 4 mps 736 mmHg 97%
    17:00 -2°C° 0.6 mm 4 mps 735 mmHg 97%
    18:00 -2°C° 0.6 mm 4 mps 735 mmHg 97%
    19:00 -2°C° 0.6 mm 4 mps 735 mmHg 97%
    20:00 -2°C° 0.6 mm 4 mps 735 mmHg 97%
    21:00 -2°C° 0.3 mm 4 mps 736 mmHg 96%
    22:00 -2°C° 0.3 mm 4 mps 736 mmHg 94%
    23:00 -3°C° 0.3 mm 4 mps 736 mmHg 93%

    31 January, Friday

    Time Temperature Precipitation Wind Pressure Humidity
    00:00 -3°C° 0 mm 4 mps 736 mmHg 93%
    01:00 -2°C° 0 mm 3 mps 736 mmHg 94%
    02:00 -2°C° 0 mm 3 mps 736 mmHg 94%
    03:00 -2°C° 0.1 mm 3 mps 736 mmHg 95%
    04:00 -2°C° 0.1 mm 3 mps 736 mmHg 96%
    05:00 -2°C° 0.1 mm 3 mps 736 mmHg 97%
    06:00 -2°C° 0.2 mm 3 mps 736 mmHg 97%
    07:00 -2°C° 0.2 mm 3 mps 736 mmHg 97%
    08:00 -2°C° 0.2 mm 3 mps 736 mmHg 97%
    09:00 -2°C° 0.2 mm 3 mps 737 mmHg 96%
    10:00 -2°C° 0.2 mm 3 mps 737 mmHg 96%
    11:00 -1°C° 0.2 mm 3 mps 737 mmHg 96%
    12:00 -1°C° 0.1 mm 2 mps 737 mmHg 96%
    13:00 -1°C° 0.1 mm 2 mps 737 mmHg 96%
    14:00 -1°C° 0.1 mm 2 mps 737 mmHg 95%
    15:00 0°C° 0.1 mm 1 mps 738 mmHg 96%
    16:00 0°C° 0.1 mm 1 mps 738 mmHg 97%
    17:00 -1°C° 0.1 mm 1 mps 738 mmHg 97%
    18:00 -1°C° 0 mm 1 mps 739 mmHg 97%
    19:00 -2°C° 0 mm 1 mps 739 mmHg 97%
    20:00 -2°C° 0 mm 1 mps 739 mmHg 97%
    21:00 -2°C° 0 mm 1 mps 740 mmHg 97%
    22:00 -3°C° 0 mm 1 mps 740 mmHg 97%
    23:00 -3°C° 0 mm 1 mps 741 mmHg 97%
    Show more